Tucson Davis Monthan, AZ

8:31 PM MST on June 24, 2018 (GMT -0700)
Davis-Monthan Air Force Base

Weather History for KDMA - December, 2017

Change the Weather History Date:

Friday, December 22, 2017

  Actual Average Record
Temperature  
Mean Temperature 42 °F -  
Max Temperature 57 °F 63 °F 79 °F (1950)
Min Temperature 26 °F 38 °F 19 °F (1968)
Degree Days  
Heating Degree Days 24    
Moisture  
Dew Point 17 °F    
Average Humidity 44    
Maximum Humidity 64    
Minimum Humidity 20    
Precipitation  
Precipitation 0.00 in - - ()
Sea Level Pressure  
Sea Level Pressure 30.23 in    
Wind  
Wind Speed 4 mph (SE)    
Max Wind Speed 8 mph    
Max Gust Speed -    
Visibility 10 miles    
Events      
Averages and records for this station are not official NWS values.
T = Trace of Precipitation, MM = Missing Value Source: NWS Daily Summary

Daily Weather History Graph

Daily Weather History Graph

Search for Another Location

Airport or City:

Astronomy

Dec. 22, 2017 Rise Set
Actual Time 7:21 AM MST 5:23 PM MST
Civil Twilight 6:53 AM MST 5:50 PM MST
Nautical Twilight 6:23 AM MST 6:21 PM MST
Astronomical Twilight 5:53 AM MST 6:51 PM MST
Moon 10:24 AM MST (12/22) 9:28 PM MST (12/22)
Length of Visible Light 10h 56m
Length of Day
10h 02m
Waxing Crescent, 17% of the Moon is Illuminated
Dec 22
Waxing Crescent
Dec 26
First Quarter
Jan 1
Full
Jan 8
Last Quarter
Jan 16
New

Hourly Weather History & Observations

Time (MST) Temp. Windchill Dew Point Humidity Pressure Visibility Wind Dir Wind Speed Gust Speed Precip Events Conditions
12:58 AM 30.4 °F 24.5 °F 13.5 °F 50% 30.11 in 10.0 mi SE 5.8 mph - N/A   Clear
1:58 AM 29.7 °F 26.1 °F 13.3 °F 51% 30.13 in 10.0 mi SSE 3.5 mph - N/A   Clear
2:58 AM 27.9 °F 21.5 °F 13.8 °F 56% 30.16 in 10.0 mi SE 5.8 mph - N/A   Clear
3:58 AM 27.3 °F 20.9 °F 15.3 °F 61% 30.14 in 10.0 mi SSE 5.8 mph - N/A   Clear
4:58 AM 26.6 °F 19.1 °F 14.9 °F 61% 30.16 in 10.0 mi ESE 6.9 mph - N/A   Clear
5:58 AM 26.1 °F 19.4 °F 14.7 °F 62% 30.18 in 10.0 mi SSE 5.8 mph - N/A   Clear
6:58 AM 26.1 °F 18.4 °F 15.3 °F 64% 30.21 in 10.0 mi SE 6.9 mph - N/A   Clear
7:58 AM 26.6 °F 20.0 °F 15.6 °F 63% 30.24 in 10.0 mi SE 5.8 mph - N/A   Clear
8:58 AM 32.5 °F - 19.8 °F 59% 30.26 in 10.0 mi Calm Calm - N/A   Clear
9:58 AM 38.7 °F - 24.3 °F 56% 30.29 in 10.0 mi Calm Calm - N/A   Clear
10:58 AM 43.7 °F - 16.5 °F 34% 30.31 in 10.0 mi Calm Calm - N/A   Clear
11:58 AM 48.9 °F - 17.2 °F 28% 30.28 in 10.0 mi Calm Calm - N/A   Clear
12:58 PM 53.2 °F - 16.3 °F 23% 30.25 in 10.0 mi Calm Calm - N/A   Clear
1:58 PM 57.7 °F - 16.9 °F 20% 30.23 in 10.0 mi Calm Calm - N/A   Clear
2:58 PM 55.4 °F - 14.9 °F 20% 30.22 in 10.0 mi West 5.8 mph - N/A   Clear
3:58 PM 54.9 °F - 15.6 °F 21% 30.22 in 10.0 mi NW 3.5 mph - N/A   Clear
4:58 PM 52.3 °F - 16.5 °F 24% 30.24 in 10.0 mi NW 5.8 mph - N/A   Clear
5:58 PM 47.1 °F - 18.0 °F 31% 30.25 in 10.0 mi NNW 8.1 mph - N/A   Clear
6:58 PM 44.8 °F 41.6 °F 17.4 °F 33% 30.26 in 10.0 mi NNW 5.8 mph - N/A   Clear
7:58 PM 41.9 °F - 16.2 °F 35% 30.26 in 10.0 mi Calm Calm - N/A   Clear
8:58 PM 38.1 °F - 12.9 °F 36% 30.28 in 10.0 mi Calm Calm - N/A   Clear
9:58 PM 37.6 °F 35.1 °F 16.0 °F 41% 30.28 in 10.0 mi ENE 3.5 mph - N/A   Clear
10:58 PM 34.3 °F 30.2 °F 20.7 °F 57% 30.30 in 10.0 mi South 4.6 mph - N/A   Clear
11:58 PM 33.6 °F 28.4 °F 21.2 °F 60% 30.26 in 10.0 mi SE 5.8 mph - N/A   Clear